Content
SEND FEEDBACK

Daily
Averages
Monthly
Summary
United States of America

SOUTH LAKE TAHOE, CALIFORNIA


Home > North America > United States > California
Elevation: 6263 feet     Latitude: 38 53N     Longitude: 119 59W

WEATHER
 
SELECT A DAY
Number of Records: 172,712;   Date Range: 1/1/95 - 4/17/14
 
SHARE

PRINT THIS DATA

[ ← Previous Day ]
WEATHER ALMANAC - JANUARY 11, 2013
[ Next Day → ]
[ °C ]   °F
Weather ElementAverageHighLow
Temperature17.4 °F25 °F (1:53 pm)5 °F (11:53 pm)
Dewpoint8 °F12.9 °F (6:53 pm) (7:00 pm)
Humidity68 %81 % (7:53 pm)40 % (3:53 pm)
Barometer30.02 in30.16 in (7:53 am)29.90 in (4:05 am)
Wind Speed1.6 mph8.1 mph (9:53 pm)
Weather ElementAverage
Visibility7.6 mi
Wind DirectionNNE (27 °)

Weather ElementTotal
Precipitation0.17 in
Heating Degree Days50 (Base 65)
Averaged from 33 records on January 11, 2013
WEATHER CONDITIONS BREAKOUT
WIND DIRECTION BREAKOUT
WEATHER BY HOUR - JANUARY 11, 2013
[ °C ]   °F
Local TimeTemperatureDewpointHumidityBarometerVisibilityWind DirectionWind SpeedGust SpeedPrecipitationEventsConditions
1:53 AM14.0 °F7.0 °F74 %30.00 in10.0 miVariable3.5 mphOvercast
2:53 AM14.0 °F7.0 °F74 %30.03 in10.0 miSSE (160°)4.6 mphScattered Clouds
3:53 AM17.1 °F9.0 °F71 %30.01 in8.0 miCalm0.00 inSnowLight Snow
4:05 AM17.6 °F10.4 °F73 %29.90 in2.5 miCalm0.00 inSnowLight Snow
4:12 AM17.6 °F10.4 °F73 %29.90 in5.0 miCalm0.00 inSnowLight Snow
4:53 AM18.0 °F8.1 °F65 %30.01 in10.0 miCalm0.00 inOvercast
5:53 AM14.0 °F7.0 °F74 %30.07 in10.0 miCalmScattered Clouds
6:53 AM10.9 °F3.9 °F73 %30.14 in10.0 miCalmMostly Cloudy
7:53 AM10.9 °F3.0 °F70 %30.16 in10.0 miCalmPartly Cloudy
8:53 AM12.9 °F5.0 °F71 %30.16 in10.0 miSouth (170°)4.6 mphOvercast
9:53 AM21.0 °F3.9 °F48 %30.10 in10.0 miSouth (190°)6.9 mphOvercast
10:53 AM23.0 °F3.0 °F42 %30.09 in10.0 miCalmOvercast
12:53 PM24.1 °F7.0 °F48 %30.01 in10.0 miCalmOvercast
1:53 PM25.0 °F6.1 °F45 %30.01 in10.0 miVariable6.9 mphOvercast
2:53 PM24.1 °F5.0 °F44 %30.02 in10.0 miCalmClear
3:53 PM24.1 °F3.0 °F40 %30.00 in10.0 miVariable3.5 mphOvercast
4:53 PM19.9 °F7.0 °F57 %30.02 in10.0 miCalmMostly Cloudy
5:39 PM17.6 °F8.6 °F68 %29.92 in4.0 miCalm0.00 inSnowLight Snow
5:53 PM16.0 °F9.0 °F74 %30.08 in6.0 miCalm0.00 inSnowLight Snow
6:00 PM15.8 °F8.6 °F73 %29.92 in9.0 miCalm0.00 inScattered Clouds
6:43 PM17.6 °F10.4 °F73 %29.93 in2.5 miCalm0.01 inSnowLight Snow
6:45 PM19.4 °F12.2 °F74 %29.93 in1.8 miCalm0.01 inSnowLight Snow
6:53 PM19.0 °F12.9 °F77 %30.09 in0.8 miNE (50°)4.6 mph0.03 inSnowLight Snow
7:02 PM17.6 °F12.2 °F79 %29.94 in0.2 miNE (40°)4.6 mph0.02 inSnowHeavy Snow
7:19 PM17.6 °F12.2 °F79 %29.93 in1.5 miCalm0.02 inSnowLight Snow
7:21 PM17.6 °F12.2 °F79 %29.93 in3.0 miCalm0.02 inSnowLight Snow
7:29 PM17.6 °F12.2 °F79 %29.94 in9.0 miCalm0.02 inOvercast
7:39 PM17.6 °F12.2 °F79 %29.94 in8.0 miCalm0.02 inSnowLight Snow
7:53 PM18.0 °F12.9 °F81 %30.09 in10.0 miCalm0.02 inOvercast
8:53 PM15.1 °F10.0 °F80 %30.11 in10.0 miCalmMostly Cloudy
9:53 PM17.1 °F6.1 °F62 %30.06 in10.0 miEast (90°)8.1 mphClear
10:53 PM16.0 °F6.1 °F65 %30.07 in10.0 miCalm0.00 inMostly Cloudy
11:53 PM5.0 °F0.0 °F80 %30.12 in10.0 miSouth (190°)4.6 mphClear
Hourly data recorded from KTVL, located 0.96 miles away from South Lake Tahoe, California







STORIES FROM OUR PARTNERS